Briefing drone pour Les andelys

Rechercher une autre localisation

Conditions de vol :


Nous sommes le : Mardi 13 avril 2021
Il est 11:00 UTC (13:00 LT)

Lever de soleil : 04:39 UTC (06:39 LT)
Coucher de soleil : 19:09 UTC (21:09 LT)

Météo

L'essentiel des conditions de vol

VIGILANCE MÉTÉO FRANCE - Eure (27)
Pas de vigilances particulieres
CARTES DES FRONTS
METAR de LFOP
LFOP 131030Z AUTO 09009KT 050V140 9999 FEW041 08/M02 Q1033 NOSIG

Date d'émission: 13/04/2021
Heure d'émission: 10:30 UTC
Vent: 090° (variable du 050° au 140°) pour 9 KT (17 km/h)
Visibilité horizontale: > 10 km
Plafond :
- Peu de nuages à 4100ft (1250m)
Température: 8 °C
Point de rosée: -2 °C
Humidité: 49%
Pression (QNH): 1033 hPa
Conditions: Pas de changement dans les 2 heures (NOSIG)
TAF de LFOP
LFOP 130500Z 1306/1406 03005KT CAVOK

Conditions prévues :

Heure d'émission : Bulletin éffectué le 13 à 06:00 UTC
Prévision : Valide du 13 a 06:00 UTC au 14 a 06:00 UTC
Vent : 30° pour 5 KT (9 km/h)
Visibilité : > 10 km
WEBCAM POUR LES ANDELYS

Réglementation

Voler en sécurité

CARTES AERONAUTIQUE 1/500.000
CARTES VAC (LFOP)
SUP AIP




Chargement des AIP...
NOTAM (LES ANDELYS + Terrain à proximité / FIR )




Chargement des NOTAMS...
CONTACT PREFECTURE 27


Avertissement : Les données mises à disposition sont indicatives. Oxygène Drone ne pourra être tenu responsable de dégâts causés aux biens et aux personnes.